EHI
0 0 0 0 0 0 0 0 0 0 0 0 0 0 0 0 0 0 0 0 0 0 0 0 0 0 0 0 0 0 0 0 0 0 0 0 0 0 0 0 0 0 0 0
0 0 0 0 0 0 0 0 0 0 0 0 0 0 0 0 0 0 0 0 0 0 0 0 0 0 0 0 0 0 0 0 0 0 0 0 0 0 0 0 0 0 0 0
0 0 0 0 0 0 0 0 0 0 0 0 0 0 0 0 0 0 0 0 0 0 0 0 0 0 0 0 0 0 0 0 0 0 0 0 0 0 0 0 0 0 0 0
0 0 0 0 0 0 0 0 0 0 0 0 0 0 0 0 0 0 0 0 0 0 0 0 0 0 0 0 0 0 0 0 0 0 0 0 0 0 0 0 0 0 0 0
0 0 0 0 0 0 0 0 0 0 0 0 0 0 0 0 0 0 0 0 0 0 0 0 0 0 0 0 0 0 0 0 0 0 0 0 0 0 0 0 0 0 0 0
0 0 0 0 0 0 0 0 0 0 0 0 0 0 0 0 0 0 0 0 0 0 0 0 0 0 0 0 0 0 0 0 0 0 0 0 0 0 0 0 0 0 0 0
0 0 0 0 0 0 0 0 0 0 0 0 0 0 0 0 0 0 0 0 0 0 0 0 0 0 0 0 0 0 0 0 0 0 0 0 0 0 0 0 0 0 0 0
0 0 0 0 0 0 0 0 0 0 0 0 0 0 0 0 0 0 0 0 0 0 0 0 0 0 0 0 0 0 0 0 0 0 0 0 0 0 0 0 0 0 0 0
0 0 0 0 0 0 0 0 0 0 0 0 0 0 0 0 0 0 0 0 0 0 0 0 0 0 0 0 0 0 0 0 0 0 0 0 0 0 0 0 0 0 0 0
0 0 0 0 0 0 0 0 0 0 0 0 0 0 0 0 0 0 0 0 0 0 0 0 0 0 0 0 0 0 0 0 0 0 0 0 0 0 0 0 0 0 0 0
0 0 0 0 0 0 0 0 0 0 0 0 0 0 0 0 0 0 0 0 0 0 0 0 0 0 0 0 0 0 0 0 0 0 0 0 0 0 0 0 0 0 0 0
0 0 0 0 0 0 0 0 0 0 0 0 0 0 0 0 0 0 0 0 0 0 0 0 0 0 0 0 0 0 0 0 0 0 0 0 0 0 0 0 0 0 0 0
0 0 0 0 0 0 0 0 0 0 0 0 0 0 0 0 0 0 0 0 0 0 0 0 0 0 0 0 0 0 0 0 0 0 0 0 0 0 0 0 0 0 0 0
0 0 0 0 0 0 0 0 0 0 0 0 0 0 0 0 0 0 0 0 0 0 0 0 0 0 0 0 0 0 0 0 0 0 0 0 0 0 0 0 0 0 0 0
0 0 0 0 0 0 0 0 0 0 0 0 0 0 0 0 0 0 0 0 0 0 0 0 0 0 0 0 0 0 0 0 0 0 0 0 0 0 0 0 0 0 0 0
0 0 0 0 0 0 0 0 0 0 0 0 0 0 0 0 0 0 0 0 0 0 0 0 0 0 0 0 0 0 0 0 0 0 0 0 0 0 0 0 0 0 0 0
0 0 0 0 0 0 0 0 0 0 0 0 0 0 0 0 0 0 0 0 0 0 0 0 0 0 0 0 0 0 0 0 0 0 0 0 0 0 0 0 0 0 0 0
0 0 0 0 0 0 0 0 0 0 0 0 0 0 0 0 0 0 0 0 0 0 0 0 0 0 0 0 0 0 0 0 0 0 0 0 0 0 0 0 0 0 0 0
0 0 0 0 0 0 0 0 0 0 0 0 0 0 0 0 0 0 0 0 0 0 0 0 0 0 0 0 0 0 0 0 0 0 0 0 0 0 0 0 0 0 0 0
0 0 0 0 0 0 0 0 0 0 0 0 0 0 0 0 0 0 0 0 0 0 0 0 0 0 0 0 0 0 0 0 0 0 0 0 0 0 0 0 0 0 0 0
0 0 0 0 0 0 0 0 0 0 0 0 0 0 0 0 0 0 0 0 0 0 0 0 0 0 0 0 0 0 0 0 0 0 0 0 0 0 0 0 0 0 0 0
0 0 0 0 0 0 0 0 0 0 0 0 0 0 0 0 0 0 0 0 0 0 0 0 0 0 0 0 0 0 0 0 0 0 0 0 0 0 0 0 0 0 0 0
0 0 0 0 0 0 0 0 0 0 0 0 0 0 0 0 0 0 0 0 0 0 0 0 0 0 0 0 0 0 0 0 0 0 0 0 0 0 0 0 0 0 0 0
0 0 0 0 0 0 0 0 0 0 0 0 0 0 0 0 0 0 0 0 0 0 0 0 0 0 0 0 0 0 0 0 0 0 0 0 0 0 0 0 0 0 0 0
0 0 0 0 0 0 0 0 0 0 0 0 0 0 0 0 0 0 0 0 0 0 0 0 0 0 0 0 0 0 0 0 0 0 0 0 0 0 0 0 0 0 0 0
0 0 0 0 0 0 0 0 0 0 0 0 0 0 0 0 0 0 0 0 0 0 0 0 0 0 0 0 0 0 0 0 0 0 0 0 0 0 0 0 0 0 0 0
Wind_Speed
9 8 11 13 15 10 6 7 8 4 5 6 8 9 8 7 7 7 7 7 8 8 8 8 8 8 8 8 9 8 7 6 5 4 3 2 2 1 1 1 1 1 1 1
7 13 12 10 11 12 10 8 6 1 4 3 5 9 8 8 9 8 7 7 8 7 7 8 8 8 8 9 8 8 7 7 6 4 3 2 2 1 1 1 1 1 1 0
11 6 10 12 10 11 11 9 7 3 2 3 4 8 10 9 10 8 7 6 6 8 8 8 7 7 8 8 9 8 7 7 6 5 3 3 2 1 1 0 0 1 1 0
11 7 6 10 11 9 9 6 6 3 2 4 5 5 5 7 9 9 8 7 6 6 7 8 8 8 7 7 7 7 7 6 6 5 5 5 3 2 2 1 1 1 1 1
7 8 8 10 10 8 3 1 3 3 4 4 5 4 6 6 7 8 7 7 6 5 6 8 8 8 7 6 6 6 7 6 5 5 5 4 2 1 1 1 1 1 1 1
6 4 6 6 4 4 3 2 1 2 2 6 8 7 6 5 7 8 7 6 6 5 5 7 8 8 7 6 6 6 6 5 5 5 4 4 3 2 2 1 2 1 1 1
6 5 3 2 4 4 5 5 3 2 4 8 6 7 5 2 3 6 7 7 6 6 5 7 8 8 7 7 6 5 6 5 5 5 4 3 3 3 3 2 2 1 1 1
7 7 8 6 6 6 8 7 6 7 6 4 5 7 3 3 4 5 6 6 6 6 5 6 7 7 7 7 7 6 6 5 5 4 4 3 3 2 2 1 1 2 2 2
6 5 7 7 4 6 7 7 3 1 2 2 5 3 2 3 4 5 6 6 5 5 5 6 7 7 7 6 6 5 5 5 5 4 3 3 3 2 1 1 1 1 2 2
1 3 5 3 2 3 3 4 3 3 4 5 5 7 6 8 7 6 6 6 5 5 5 6 6 6 6 5 4 4 4 4 4 4 3 2 2 2 2 1 2 2 2 2
1 3 4 4 8 8 5 5 5 4 4 4 3 2 2 7 8 7 6 6 6 5 5 5 5 6 6 5 4 3 3 3 3 3 2 2 1 1 1 1 2 2 2 2
2 2 4 5 1 1 4 5 6 5 5 3 1 1 3 7 7 7 6 7 6 6 5 4 5 5 5 5 4 3 3 3 3 2 1 1 1 1 1 1 2 2 3 3
3 3 4 3 2 1 3 4 4 2 1 3 3 2 3 6 7 6 6 7 6 6 5 4 4 4 4 4 3 3 3 3 2 2 1 1 1 1 1 2 2 2 3 3
2 2 4 7 4 5 5 6 5 4 4 3 4 3 3 4 5 5 6 6 6 5 5 4 3 3 3 3 3 3 2 2 2 1 1 0 1 1 1 2 2 2 3 3
2 2 3 3 2 3 5 8 9 8 6 5 4 3 3 3 5 5 5 6 5 5 4 4 3 3 3 3 2 2 2 2 1 1 0 0 1 1 1 2 2 2 3 4
1 2 1 2 2 2 3 7 9 9 8 7 4 3 2 2 4 4 5 5 5 4 4 3 4 3 3 2 2 2 2 1 1 1 0 1 1 1 2 2 2 3 3 4
1 2 2 3 3 0 4 6 8 7 6 6 7 3 2 2 3 2 4 4 4 4 4 3 3 2 2 2 2 2 1 1 1 1 1 1 1 2 2 2 2 3 4 4
2 1 1 1 3 6 3 0 3 4 2 1 1 1 2 2 2 4 4 4 3 4 3 3 2 2 2 2 2 2 2 1 1 1 1 1 1 2 2 2 3 3 3 4
3 2 1 2 3 3 0 1 0 3 2 1 0 1 2 2 3 4 5 5 4 3 3 3 2 2 2 2 2 2 2 1 1 1 2 2 2 2 3 3 3 3 3 4
2 2 1 2 2 3 0 2 2 2 1 2 1 0 1 1 1 0 4 5 5 4 4 3 3 3 3 2 2 2 2 2 2 2 2 3 2 2 3 4 4 3 3 4
2 2 3 3 2 1 3 3 2 3 2 2 2 2 2 2 2 2 4 5 5 4 4 3 3 3 2 2 2 2 2 2 2 2 3 3 3 3 3 3 3 4 4 5
2 2 2 1 2 2 3 2 2 1 2 4 4 4 4 4 4 4 5 4 4 4 4 4 3 3 3 3 3 2 3 3 3 3 3 3 3 4 4 3 3 3 4 4
1 2 1 2 2 2 2 3 3 4 4 4 4 4 5 4 3 4 4 4 4 4 4 3 3 3 3 3 3 2 3 4 3 3 3 3 4 3 3 3 4 4 3 3
0 0 1 1 1 3 4 4 6 5 5 5 5 4 4 4 3 3 3 3 3 3 3 3 3 3 3 4 4 3 3 4 3 3 3 3 3 4 3 3 2 3 3 4
1 1 1 1 1 2 3 4 4 5 6 6 6 5 4 4 3 3 3 2 2 3 3 3 3 3 3 4 4 4 4 4 4 4 4 3 3 3 4 3 3 3 3 4
2 2 0 1 1 1 2 3 4 5 5 4 4 4 4 3 3 3 2 2 2 2 2 3 3 3 3 4 4 4 5 4 4 4 4 3 3 3 3 4 4 6 6 9
Wind_Direction
190 204 208 206 213 237 253 240 235 204 155 188 220 237 227 213 209 210 207 195 189 185 171 162 158 151 142 140 142 148 148 148 139 136 135 131 136 138 116 122 124 103 72 42
189 221 220 218 215 233 257 259 255 177 137 181 241 253 241 217 213 207 207 201 190 179 165 159 155 153 150 148 150 150 151 148 144 144 143 142 140 147 144 140 134 131 105 1
205 210 211 223 219 220 234 241 243 220 149 228 257 265 234 219 210 208 207 205 191 175 166 158 155 154 151 152 156 154 150 149 147 142 128 117 96 85 74 141 177 179 168 223
226 224 208 214 221 213 229 232 241 216 193 232 199 263 232 203 198 199 199 196 195 179 163 157 157 153 153 152 147 145 148 149 146 140 137 141 148 171 198 181 197 232 207 221
221 209 208 216 216 214 218 231 220 218 238 266 226 244 258 201 194 192 187 185 183 172 158 155 155 151 145 135 138 143 146 146 143 142 146 152 161 180 165 156 187 234 237 231
238 223 208 216 213 206 154 124 150 240 244 249 219 215 255 210 190 174 168 167 164 158 150 144 143 137 130 128 132 140 145 147 147 146 151 158 163 160 161 190 209 233 246 247
216 215 193 181 173 175 177 152 145 185 217 239 204 207 234 195 144 149 153 157 152 150 145 139 138 139 137 138 142 144 146 147 148 148 157 164 167 166 183 200 207 227 256 269
189 202 188 193 191 177 199 191 177 184 205 219 192 216 215 129 100 102 115 123 131 135 131 129 135 138 139 141 143 146 148 151 153 157 164 166 162 161 182 199 218 234 243 251
192 204 171 191 203 172 183 219 248 282 284 234 218 194 186 122 118 121 119 115 122 128 122 123 124 127 132 138 143 147 149 152 155 158 156 161 158 159 179 203 223 243 248 265
216 176 171 170 194 244 217 188 173 185 196 227 223 202 192 172 172 149 139 134 126 117 117 120 123 123 126 132 136 141 143 146 147 147 157 162 169 174 183 206 224 238 250 264
228 157 158 168 201 193 188 198 195 192 220 205 225 216 57 147 147 143 141 135 126 118 116 116 122 121 120 125 133 135 131 122 127 144 155 159 170 179 190 219 230 237 252 257
189 150 179 200 213 268 218 204 186 180 222 221 236 269 55 97 105 108 115 116 116 117 111 107 111 116 121 126 130 128 125 124 133 135 140 149 157 174 217 241 253 252 256 259
162 163 151 172 190 255 237 230 214 200 182 208 198 191 92 99 105 103 108 110 107 107 107 103 101 107 114 121 123 120 119 118 117 114 113 126 165 204 239 253 263 268 268 275
146 183 194 196 197 176 204 216 204 184 203 228 217 175 159 130 121 113 109 111 114 112 110 106 104 104 103 104 108 109 102 102 106 107 120 168 243 253 260 268 270 275 277 278
125 198 228 277 302 182 197 203 199 202 208 210 238 226 196 161 136 125 114 110 111 115 110 104 96 88 88 85 86 89 93 90 94 105 119 246 283 300 297 292 290 291 288 287
121 191 210 264 283 268 228 210 208 215 222 232 253 284 56 91 102 114 121 122 123 123 112 98 88 83 76 68 68 72 59 53 64 77 8 337 341 329 311 296 295 294 290 288
180 175 186 210 190 216 245 223 209 208 213 213 229 232 92 64 60 100 115 120 128 131 120 105 93 89 79 65 60 45 33 32 35 14 350 353 339 318 306 308 299 286 284 288
169 169 190 167 155 209 222 324 192 192 207 195 160 141 114 115 75 69 80 96 96 101 103 99 89 79 65 53 47 38 36 28 9 357 348 341 329 310 307 304 293 291 290 290
177 168 193 183 201 232 233 3 97 176 205 349 173 99 76 93 75 54 53 68 77 78 81 80 79 80 61 52 41 29 20 15 2 350 341 333 324 310 305 298 293 293 299 299
159 161 192 213 211 216 330 324 319 126 195 4 63 148 139 89 132 105 49 57 61 58 62 61 56 62 54 39 34 27 7 6 353 342 335 323 310 303 299 295 295 296 295 294
154 184 209 220 217 257 354 331 48 136 231 357 54 64 72 68 103 88 64 57 57 56 52 53 54 51 37 29 31 18 4 349 338 340 332 325 320 307 297 297 301 302 303 302
160 168 187 187 197 243 347 49 92 126 46 46 50 59 72 77 72 61 56 51 49 52 49 47 48 35 20 19 30 17 347 333 341 342 333 329 324 317 315 309 306 304 305 302
163 180 160 162 171 80 54 77 60 59 54 51 58 62 75 70 67 60 53 47 42 43 42 39 41 26 13 10 21 7 330 335 343 342 335 327 322 319 315 309 308 310 310 304
314 20 121 105 91 73 67 50 44 49 51 48 60 68 70 67 62 59 56 47 35 34 37 32 31 25 9 5 7 348 330 335 338 332 322 319 319 316 314 309 305 307 304 303
346 62 100 120 79 54 53 48 46 47 50 49 48 51 59 62 60 60 50 36 33 31 25 27 24 11 356 355 353 349 346 350 341 327 318 315 313 311 311 309 299 297 283 294
8 14 44 119 36 63 42 35 47 54 48 45 49 41 35 47 54 53 40 23 22 18 18 19 10 360 349 350 350 348 345 343 335 326 322 316 314 311 310 311 316 316 309 311